This is the latest recevied weather packets stored in our database for station/object R2AKT-13. If no packets are shown the sender has not sent any weather packets the latest 10 day(s).
| Time | Temp. | Humidity | Pressure | Rain* | Wind** | Luminosity | Snow |
|---|---|---|---|---|---|---|---|
| 1777997284 | 21.67° C | 42% | 983.3 hPa | - | 0 m/s | - | - |
| 1777996714 | 21.67° C | 43% | 983.3 hPa | - | 0 m/s | - | - |
| 1777996169 | 21.67° C | 42% | 983.1 hPa | - | 0.89 m/s, 223° | - | - |
| 1777995669 | 22.22° C | 44% | 983.1 hPa | - | 0.89 m/s, 203° | - | - |
| 1777995119 | 22.22° C | 44% | 983.1 hPa | - | 0.45 m/s, 192° | - | - |
| 1777994594 | 21.67° C | 44% | 983.2 hPa | - | 0.89 m/s, 200° | - | - |
| 1777994074 | 22.22° C | 43% | 983.1 hPa | - | 0.45 m/s, 192° | - | - |
| 1777993559 | 21.67° C | 43% | 983.2 hPa | - | 0.89 m/s, 214° | - | - |
| 1777992969 | 21.67° C | 43% | 983.2 hPa | - | 0.89 m/s, 187° | - | - |
| 1777992474 | 22.22° C | 40% | 983.3 hPa | - | 0 m/s | - | - |
| 1777991884 | 21.67° C | 41% | 983.2 hPa | - | 0.45 m/s, 281° | - | - |
| 1777991404 | 21.11° C | 43% | 983.2 hPa | - | 0.45 m/s, 255° | - | - |
| 1777990874 | 21.11° C | 44% | 983.3 hPa | - | 0.45 m/s, 225° | - | - |
| 1777989779 | 20° C | 46% | 983.2 hPa | - | 2.24 m/s, 203° | - | - |
| 1777989239 | 19.44° C | 49% | 983.6 hPa | - | 1.79 m/s, 213° | - | - |
| 1777988754 | 18.33° C | 51% | 984.1 hPa | - | 1.79 m/s, 216° | - | - |
| 1777988259 | 19.44° C | 50% | 984.2 hPa | - | 0.89 m/s, 238° | - | - |
| 1777987759 | 21.67° C | 42% | 984 hPa | - | 1.79 m/s, 262° | - | - |
| 1777987214 | 21.67° C | 41% | 983.9 hPa | - | 0.89 m/s, 235° | - | - |
| 1777986614 | 22.78° C | 38% | 983.5 hPa | - | 0.89 m/s, 238° | - | - |
| 1777986044 | 22.78° C | 38% | 983.4 hPa | - | 0.89 m/s, 256° | - | - |
| 1777985544 | 22.78° C | 38% | 983.4 hPa | - | 1.79 m/s, 258° | - | - |
| 1777985024 | 23.33° C | 37% | 983.4 hPa | - | 1.79 m/s, 231° | - | - |
| 1777984444 | 23.33° C | 36% | 983.4 hPa | - | 1.79 m/s, 259° | - | - |
| 1777983844 | 23.89° C | 35% | 983.4 hPa | - | 1.34 m/s, 149° | - | - |
* Rain since midnight (hover to see other rain measurements)
** Current wind speed in m/s (hover to see current wind gust speed)